Bradford County (N27)
Towanda, PA
Field Elevation: 730
Lat: 41°44.40N  Long: 76°26.83W
CTAF/Unicom Freq: 123.0000
   
     For Weather-by-Phone, call (570) 265-1024
Weather Advisories
12/22/2014 16:12 Z
Altimeter 30.27" Hg
Wind 190° @ 4 KT
Gusts --
Visibility 10 SM
Ceiling OVC021
Temperature 1° C (34° F)
Dewpoint -4° C (25° F)
Relative Humidity 68%
Density Altitude --
Condensation Altitude 3,500 feet
Wind Chill -1° C (30° F)
  Wind and Runways
Indicated Runway = 23
History
 
 
More Info
All DigiWx sites map
NOAA Forecast
 
Airport IQ 5010
(LHV) Lock Haven
(PS81) Robert Packer Hospital
 
about DigiWx
 
FAA Disclaimer: The data displayed is for advisory purposes only and is not to be used for flight planning or operations. For official data, please call (570) 265-1024 to hear the current automated AWOS voice message.
  METAR N27 221612Z AUTO 19004KT 10SM OVC021 01/M04 A3027